P/2012 NJ ( La Sagra )

Japanese version
Home page
Updated on April 13, 2013

---------------------------------------------------------------------

* Profile

Discovery Date July 13, 2012
Magnitude 14.6 mag
Discoverer La Sagra survey

* Pictures

* Orbital Elements

Epoch 2012 June 2.0 TT = JDT 2456080.5
T 2012 June 13.08826 TT                                 MPC
q   1.2918783            (2000.0)            P               Q
n   0.03974572     Peri.  338.41165     +0.64104221     +0.32719637
a   8.5037240      Node   315.76307     -0.47321656     -0.54368031
e   0.8480809      Incl.   84.37480     -0.60426068     +0.77288696
P  24.8
From 2402 observations 2012 July 13-2013 Mar. 11, mean residual 0".3.

* Finding Charts

* Magnitudes Graph

        H = 13.0  G = 0.15

---------------------------------------------------------------------

The orbital elements are published on M.P.E.C. 2013-G31.
The charts are made with StellaNavigator Ver.8 (AstroArts).
The magnitudes graphs are made with Comet for Windows.

---------------------------------------------------------------------

Copyright(C) Seiichi Yoshida (comet@aerith.net). All rights reserved.